Back to catalog

STARLINK-31258

AliveCommunicationsVLEO
NORAD 58829·PAYLOAD·🇺🇸 United States

Launched Jan 24, 2024 from Vandenberg Space Force Base

Loading…

Next Passes (next 24 hours)

TLE

FreshSource: CelesTrak SupGP

Epoch: Sep 14, 2026, 15:08 UTC

1 58829C 24017D   26257.63104167 -.00052933  00000+0 -15640-2 0  2574
2 58829  53.1594  44.8474 0001194  92.4402 143.8779 15.34415893    11

Track STARLINK-31258 in real time with AllMySat

Download on the App Store